GFSNGP_sfc_temp_105.txt.gz
Temp
34 34 33 33 32 33 30 31 25 29 29 34 39 35 33 33 33 32 31 32 32 31 32 33 32 32 33 34 35 37 39 39 38 39 40 41 43 48 57 59 56 58 55 50
27 33 33 29 32 33 32 31 31 33 30 41 36 35 32 31 31 29 29 30 31 31 31 31 31 30 31 32 33 35 36 36 38 38 37 37 37 39 40 41 42 42 41 41
20 29 29 24 30 31 32 34 33 25 33 36 31 30 30 29 29 29 29 28 29 29 30 30 30 30 29 30 32 32 33 34 35 36 36 35 35 34 34 35 36 36 36 37
22 25 14 29 36 34 31 30 31 33 34 35 30 29 29 29 28 28 28 28 28 29 29 30 29 30 31 30 29 29 30 31 32 33 34 34 34 32 32 33 32 33 34 35
20 20 26 26 29 28 28 28 30 29 29 29 29 28 26 29 29 28 28 28 29 30 30 29 29 29 29 29 29 28 28 28 29 30 30 32 32 31 31 31 32 32 33 33
20 16 14 23 30 34 32 25 29 30 29 28 28 27 23 28 29 28 29 29 28 29 30 29 28 29 27 26 27 26 27 28 29 29 29 29 30 30 31 30 29 30 29 31
22 20 25 28 30 33 24 22 28 29 30 31 26 28 27 28 27 28 28 28 29 28 27 28 29 29 26 25 25 27 28 29 28 29 29 30 30 30 30 29 29 28 28 28
23 20 18 30 32 26 27 28 28 28 28 26 26 25 26 26 26 26 26 28 28 28 27 27 29 28 25 24 26 27 28 28 28 29 29 30 30 30 30 30 29 28 28 27
26 24 29 30 29 31 31 29 29 28 28 27 25 24 24 24 25 25 26 27 28 28 28 28 28 28 26 26 27 27 26 27 29 29 30 30 30 29 29 31 30 29 29 27
28 28 28 29 30 30 31 29 29 29 28 27 24 24 24 24 25 25 26 26 28 28 27 26 29 29 29 30 29 28 27 26 27 28 28 30 31 31 30 29 29 30 28 28
27 28 29 29 29 29 29 29 28 28 27 26 25 24 24 24 24 25 25 26 27 26 26 26 29 28 29 31 32 30 29 29 28 28 28 28 28 29 30 30 30 29 29 29
25 29 29 27 29 30 28 27 27 26 24 25 25 22 23 22 23 23 23 25 25 26 26 25 26 26 27 29 29 28 27 27 26 27 27 27 27 26 28 29 29 30 30 29
28 30 29 29 29 30 28 27 28 26 26 24 25 25 25 23 24 24 24 24 24 24 25 26 25 23 24 27 25 23 24 24 26 25 25 24 24 24 23 24 26 27 28 28
32 31 27 29 26 29 29 28 28 28 27 26 26 26 25 24 25 24 24 25 25 25 24 25 24 20 22 27 26 24 25 22 25 24 24 24 24 23 23 21 20 21 22 24
30 31 31 30 30 28 29 29 27 26 26 25 26 24 24 22 20 20 23 24 24 22 21 22 20 18 20 24 23 23 27 25 24 24 23 22 23 23 22 21 20 20 21 21
29 29 29 28 28 28 28 28 26 23 22 21 20 20 19 20 20 19 20 20 19 15 15 13 16 15 18 20 24 25 24 21 22 25 24 24 23 22 22 21 20 19 18 18
28 27 28 27 28 28 27 27 26 25 24 23 22 23 22 20 19 17 15 15 12 11 12 12 13 14 16 18 22 25 25 25 19 25 23 23 22 22 21 21 20 19 17 14
33 33 34 32 29 27 26 27 26 25 23 22 20 17 15 15 13 11 9 10 12 13 13 12 15 16 17 19 22 23 24 23 23 22 22 21 22 22 21 20 20 19 18 15
32 30 30 29 29 27 26 24 22 21 19 17 16 13 12 10 11 10 9 11 11 15 14 14 18 17 18 19 21 22 22 21 21 21 21 17 19 19 19 19 19 19 19 18
25 26 25 23 23 23 19 18 17 14 14 13 11 11 11 7 6 8 10 14 14 16 14 16 17 18 18 18 15 21 20 19 19 19 18 19 18 18 17 14 16 18 17 18
19 19 17 15 11 11 12 13 12 10 9 10 12 10 11 8 6 7 15 19 17 16 17 15 17 18 19 16 19 18 18 17 17 16 15 15 16 16 16 16 17 16 17 17
15 14 11 10 11 8 9 11 10 8 8 7 4 5 9 14 11 12 11 18 20 10 17 19 18 9 14 10 18 17 17 17 17 16 16 16 15 15 15 15 14 15 16 16
14 13 12 11 13 11 11 11 10 10 9 9 9 11 16 20 20 20 19 19 20 14 20 19 11 6 5 15 16 15 15 14 15 15 14 14 14 14 13 14 14 14 15 15
13 15 14 14 14 16 15 14 16 15 12 13 12 11 18 19 19 21 21 13 9 12 16 15 12 7 2 13 13 13 12 13 13 13 13 7 13 12 12 13 12 15 13 11
17 17 16 17 20 20 20 20 19 19 19 21 21 19 17 21 22 21 19 18 11 14 17 8 6 6 13 13 13 13 13 14 13 13 12 12 12 12 13 13 12 13 13 13
20 20 21 23 23 23 22 22 22 21 21 19 18 17 17 17 18 18 18 15 16 13 15 14 12 13 13 13 13 13 13 14 14 13 12 13 13 12 12 11 11 11 11 13
22 21 22 22 23 23 23 22 21 19 17 19 17 15 15 14 14 16 12 14 13 10 9 9 9 8 8 8 10 10 11 12 10 11 11 11 11 11 11 11 13 13 12 10

GFSNGP_sfc_temp_108.txt.gz
Temp
40 41 39 39 39 40 38 38 31 35 35 40 46 47 42 42 41 40 38 37 37 39 38 36 34 32 32 33 33 35 35 35 36 40 40 39 40 42 44 50 56 58 58 58
33 39 39 36 40 41 40 39 38 39 35 47 49 41 39 37 37 36 34 32 35 36 36 34 34 32 31 31 31 34 33 32 33 36 38 38 37 38 38 39 40 42 43 45
26 35 34 29 36 38 40 41 39 30 39 47 38 37 37 35 35 32 31 31 32 33 33 33 33 32 31 31 31 31 31 33 33 34 33 35 36 35 34 34 35 36 36 37
28 27 19 32 42 39 36 38 36 36 39 42 36 34 34 33 31 29 29 30 30 32 32 32 32 32 33 32 31 30 29 30 32 32 32 33 33 32 32 31 32 32 32 33
25 27 33 32 30 29 29 30 33 33 33 34 33 34 29 31 30 29 29 29 30 31 31 31 31 31 31 31 31 31 30 30 31 31 31 31 31 30 31 30 29 29 31 32
28 21 20 27 34 38 33 26 31 33 33 30 32 29 26 29 31 29 30 30 29 29 30 31 30 31 30 30 30 29 30 30 31 32 32 31 31 30 30 30 28 29 28 29
27 24 30 31 32 35 23 24 30 31 33 32 29 30 28 29 29 29 30 30 32 30 29 29 30 31 29 29 28 30 31 31 31 32 32 32 32 32 32 30 30 28 27 27
27 23 22 33 34 27 29 30 30 31 31 28 28 28 28 28 28 29 29 30 33 33 30 31 31 31 29 28 30 31 31 31 31 32 32 32 32 32 32 32 31 30 29 28
29 27 31 32 30 32 33 31 30 30 29 29 27 27 27 27 28 28 29 32 36 35 34 33 33 33 29 30 31 31 31 31 31 31 32 32 31 32 32 32 31 30 29 29
31 29 30 31 32 32 33 31 31 31 29 29 26 27 27 27 28 29 31 32 35 34 33 33 35 34 35 35 34 33 31 31 32 31 30 31 34 33 31 31 31 30 30 29
29 31 31 31 31 31 30 31 29 29 29 28 27 27 27 27 28 29 31 33 34 33 33 32 34 34 35 37 38 37 36 35 34 34 33 30 28 29 30 29 29 29 29 29
28 32 33 30 32 33 30 28 29 29 27 28 28 27 27 26 27 28 29 31 32 33 32 32 31 31 32 33 33 32 32 33 32 33 33 33 33 29 28 28 29 29 29 30
31 33 32 31 33 33 31 30 31 29 29 27 28 29 29 27 28 28 30 31 31 31 32 32 30 27 29 30 29 27 29 29 31 31 30 30 30 30 29 28 26 26 27 27
36 35 29 31 28 32 32 32 32 32 31 31 30 31 31 31 32 31 30 31 32 32 31 31 29 25 27 30 30 30 30 29 31 30 30 31 30 30 29 28 26 27 26 24
33 36 35 34 33 32 33 33 31 30 30 29 31 31 31 29 27 28 30 31 30 30 29 28 26 23 26 29 28 27 30 30 30 30 29 29 30 29 29 28 27 27 28 28
34 34 33 32 32 32 33 32 30 27 27 25 25 25 26 27 27 27 27 28 27 22 21 19 20 20 24 26 29 31 30 26 28 30 30 30 29 29 29 28 27 26 24 24
31 29 31 31 31 32 32 33 31 30 29 28 28 29 29 27 26 24 22 22 18 18 20 19 19 20 22 24 28 30 31 30 27 30 29 29 29 28 28 27 26 25 24 20
39 39 39 37 33 31 30 31 31 30 28 29 25 22 21 21 20 17 17 18 19 18 19 19 21 22 22 24 27 29 29 29 29 28 28 27 27 28 27 26 25 25 25 22
38 37 37 36 35 33 31 29 28 27 23 21 20 19 18 18 18 17 18 18 20 22 18 21 22 23 24 22 26 29 28 27 27 27 27 25 26 26 25 25 24 24 23 23
31 32 33 31 31 29 26 24 23 21 20 20 18 18 17 16 17 17 20 19 20 22 21 22 24 24 24 23 22 27 26 25 25 24 23 24 23 23 23 22 22 22 22 22
27 26 25 23 21 22 22 21 19 18 18 19 21 18 18 16 16 17 23 26 22 21 22 20 23 25 26 24 26 25 24 23 23 23 22 21 22 22 22 22 22 22 21 21
24 21 19 19 19 18 19 21 18 17 17 17 15 16 17 19 18 20 18 24 26 17 24 26 26 17 21 16 25 24 23 23 23 22 22 22 21 20 20 20 20 20 20 20
22 21 19 18 19 19 19 18 17 18 17 16 17 20 26 27 28 27 25 24 28 22 27 26 18 15 15 20 23 22 22 21 21 21 20 20 20 20 20 20 20 20 20 19
21 22 20 20 20 22 21 21 23 21 20 21 20 20 26 26 26 29 28 20 19 20 23 22 19 15 12 21 21 21 20 20 20 20 20 19 20 19 19 19 19 20 20 19
23 22 22 23 26 27 26 26 26 25 25 27 26 25 24 29 26 27 26 25 18 20 24 14 14 15 20 21 20 19 19 19 18 18 18 18 18 18 18 19 18 18 19 19
26 27 28 30 31 30 29 28 28 28 28 26 25 26 26 26 26 26 24 22 22 20 20 20 17 18 18 18 17 17 17 17 17 16 15 16 15 15 16 16 16 17 17 18
29 28 29 29 30 30 29 29 28 26 27 26 24 25 25 24 22 22 20 20 19 18 17 17 16 14 13 13 15 14 14 14 12 11 12 12 12 12 12 12 13 13 14 15

GFSNGP_sfc_temp_111.txt.gz
Temp
45 47 45 43 43 44 42 42 34 39 39 46 51 52 50 48 49 48 44 43 42 41 40 41 39 37 37 35 33 33 34 34 32 35 36 38 39 39 41 42 44 46 53 53
37 44 44 39 44 45 45 44 44 45 41 52 54 52 47 44 43 41 39 39 38 38 36 35 34 35 35 35 32 32 32 32 33 34 33 34 36 36 36 37 37 38 38 40
29 39 38 32 39 43 45 47 46 34 44 49 45 40 42 40 39 36 35 34 34 32 32 32 32 33 33 34 34 32 32 32 33 33 32 32 34 33 32 33 35 35 36 36
31 32 22 38 46 44 41 43 46 43 44 41 39 38 37 36 35 33 31 31 31 31 32 32 32 33 33 33 33 33 32 32 32 32 32 32 31 30 31 31 30 30 31 33
28 30 36 36 33 31 30 34 36 37 37 37 37 37 31 34 33 30 30 30 30 31 31 32 32 32 32 32 32 33 31 32 32 32 32 32 30 30 29 29 29 29 29 30
32 24 22 29 38 42 37 27 36 38 38 35 35 31 28 31 31 30 31 31 30 30 31 31 31 33 32 31 31 30 31 31 32 33 32 32 32 32 31 30 29 29 28 29
30 27 30 34 35 39 24 26 34 35 35 36 32 30 29 30 30 30 31 31 33 32 31 31 32 33 31 31 30 31 32 32 32 32 32 32 32 32 32 32 32 31 29 29
31 26 24 36 37 29 30 32 33 33 34 31 29 29 29 29 29 30 30 33 37 36 33 33 33 32 30 30 32 33 32 32 31 32 32 32 32 32 32 32 32 31 30 29
30 29 33 35 32 33 34 32 31 32 31 31 29 29 29 28 29 29 31 36 39 38 37 37 37 37 32 32 34 34 34 33 32 31 31 32 31 31 32 32 31 30 29 28
33 32 32 33 35 33 34 32 32 32 31 30 28 28 28 29 29 30 35 37 39 38 36 35 37 37 38 39 38 36 35 35 35 34 30 30 33 32 30 28 30 29 27 27
32 33 33 34 34 33 31 32 31 31 30 29 29 28 29 28 29 33 35 37 38 36 35 34 36 36 37 38 40 38 37 36 37 37 36 32 28 28 30 28 28 27 28 26
30 36 35 32 34 34 31 30 30 30 29 30 30 28 29 27 30 32 33 35 36 36 35 33 33 32 33 35 35 34 34 34 34 35 35 35 35 30 28 28 28 28 28 28
32 36 35 34 35 34 31 31 31 30 31 29 31 31 31 30 31 32 34 35 35 35 35 34 31 30 32 32 32 31 30 31 33 33 32 32 32 31 30 29 28 27 27 27
38 36 31 34 31 35 34 34 35 35 34 34 33 34 35 35 36 35 34 35 36 36 35 34 31 27 31 33 32 31 33 31 33 32 32 33 32 32 31 30 29 29 29 27
35 38 37 36 36 35 36 36 34 33 34 34 36 36 36 34 32 33 34 35 34 32 31 30 27 25 28 31 32 30 31 31 33 32 32 32 33 32 32 31 29 29 29 29
36 36 35 33 34 35 35 35 33 31 31 30 30 30 32 33 32 32 31 30 29 24 23 21 22 22 26 27 32 34 33 29 32 33 32 32 32 31 31 30 30 29 25 23
33 31 33 33 34 34 35 35 34 33 32 32 32 33 34 32 31 28 25 24 22 21 22 22 22 23 24 26 30 33 33 32 30 32 31 30 31 30 30 29 29 29 27 22
40 40 39 38 35 34 34 35 34 34 32 33 28 26 24 25 22 20 20 21 21 20 21 22 23 25 24 25 29 32 31 31 31 30 30 29 29 30 29 28 28 27 27 26
39 39 39 38 37 34 33 32 31 29 25 24 23 21 21 21 21 21 22 21 23 24 21 23 25 27 27 25 28 31 30 29 29 29 28 28 28 28 27 26 26 26 26 25
35 37 37 36 35 32 29 27 27 24 24 24 22 21 20 19 20 21 23 21 21 24 25 25 28 28 27 27 28 30 28 27 27 27 26 26 25 24 25 25 25 24 24 24
30 30 29 29 28 27 27 26 23 21 23 23 23 21 21 20 21 22 24 28 24 24 25 25 27 28 28 25 30 27 27 26 25 25 24 24 23 24 24 23 23 23 23 23
28 26 25 24 24 23 24 25 23 22 22 22 21 20 20 21 21 23 22 27 28 21 28 29 28 20 23 19 28 26 25 25 24 24 23 23 22 22 22 22 22 22 22 22
26 25 24 23 23 24 24 23 22 22 21 20 20 23 29 30 32 30 27 27 31 24 29 26 20 19 18 24 24 24 23 23 23 22 22 22 22 21 21 21 21 21 21 21
26 25 25 25 24 24 23 24 26 24 23 24 24 25 29 29 28 32 30 25 24 23 24 22 20 18 15 23 23 22 22 21 21 21 21 20 20 20 20 20 20 21 20 20
27 26 25 26 29 30 29 30 29 29 28 30 29 28 29 31 28 28 28 26 23 24 23 18 20 19 22 21 20 19 19 19 19 18 18 17 17 17 18 18 18 18 18 19
29 30 32 34 35 33 32 32 31 31 32 28 28 28 27 28 28 28 25 25 24 23 22 21 19 18 18 18 17 17 17 17 16 15 13 14 14 14 14 14 13 14 14 15
33 32 34 34 34 34 34 34 31 30 30 29 27 27 27 26 25 25 23 23 22 20 20 19 18 16 15 14 15 15 14 14 12 11 11 10 10 10 10 9 10 10 11 11

GFSNGP_sfc_temp_114.txt.gz
Temp
43 46 46 44 43 45 42 43 35 38 38 45 50 49 49 49 49 47 42 41 40 38 37 36 35 35 35 34 34 34 33 33 33 34 35 35 35 36 36 35 38 41 41 42
35 43 44 40 45 45 44 44 43 44 41 52 54 50 47 45 44 39 37 36 36 36 34 33 33 33 33 33 33 34 33 32 33 33 33 33 33 33 34 34 34 35 37 38
29 40 40 32 39 42 44 46 45 34 43 44 42 38 37 38 37 34 33 33 32 31 31 31 31 32 31 32 33 33 33 33 33 33 32 31 31 31 30 30 32 31 33 35
31 33 21 39 47 43 40 42 44 43 41 40 37 35 34 34 33 31 31 31 30 30 30 31 32 32 32 32 32 32 32 32 33 33 32 32 32 30 29 29 29 29 30 31
27 28 35 38 34 33 30 34 41 38 40 39 37 35 29 33 32 30 29 29 29 30 30 31 31 32 32 31 31 31 30 31 31 32 32 32 32 31 31 30 29 28 29 29
31 24 21 30 37 43 39 26 36 37 37 36 36 29 25 31 32 30 31 30 29 30 31 30 30 31 31 30 30 29 30 30 31 31 31 31 31 32 32 32 30 30 30 29
31 27 30 34 37 41 23 25 34 35 36 34 30 30 29 30 30 31 31 31 32 32 31 31 33 33 30 30 29 31 31 31 31 32 30 30 31 31 31 31 30 29 28 28
32 26 23 36 36 29 30 33 34 33 32 30 29 29 29 29 29 30 30 32 36 34 33 33 33 31 29 29 31 33 33 30 29 29 31 29 29 29 31 29 28 27 27 26
29 28 33 35 32 35 36 33 31 31 31 30 29 28 28 28 28 29 30 35 38 36 35 35 35 35 31 29 33 33 34 33 29 28 28 29 26 25 26 28 26 25 25 24
33 32 33 34 35 35 35 32 32 32 31 30 27 28 27 28 29 29 33 35 37 35 33 32 34 34 34 36 36 34 33 33 33 32 27 27 28 26 24 24 24 25 23 22
31 33 34 34 34 33 32 32 31 31 30 29 29 28 28 28 29 31 34 36 36 33 31 31 32 32 34 35 36 34 33 32 33 33 32 26 25 25 24 24 25 22 23 23
29 36 34 32 34 34 31 30 30 30 29 30 30 27 28 27 29 32 33 34 34 33 31 30 30 30 31 33 33 31 31 31 31 31 31 31 30 25 29 29 29 29 29 27
33 37 35 34 35 35 31 31 31 30 30 28 29 29 29 29 31 34 34 34 33 32 31 29 28 28 30 30 29 28 28 30 30 29 30 29 28 28 26 28 31 30 30 30
38 36 31 34 31 34 33 32 33 32 32 31 32 33 34 34 35 34 32 34 34 32 30 29 26 24 27 30 30 28 30 29 30 29 29 29 29 28 27 26 24 23 27 28
37 39 37 36 36 35 36 35 32 31 33 33 35 35 35 33 31 32 33 33 30 27 26 25 23 22 25 26 30 27 29 28 29 29 29 28 29 28 28 27 25 23 21 22
36 36 35 33 33 34 35 34 32 31 32 30 29 31 32 32 30 28 26 26 24 20 21 17 19 20 22 24 27 31 29 26 27 29 28 27 28 27 27 26 25 24 20 19
32 30 32 32 33 34 34 34 33 31 31 31 31 32 33 31 28 25 23 22 19 18 19 18 18 17 20 22 25 29 29 29 24 28 27 27 26 26 25 24 24 23 21 17
40 38 38 37 34 34 33 34 33 33 32 31 25 23 21 21 19 18 18 18 16 16 18 19 19 20 20 22 25 29 28 28 28 26 26 25 25 26 24 23 23 22 22 21
40 38 38 37 36 34 33 32 29 25 24 23 22 20 20 20 20 19 20 17 18 19 18 20 25 24 25 23 26 28 27 25 26 26 25 22 23 23 22 22 21 20 21 20
36 37 37 35 34 31 27 25 24 23 24 22 20 19 18 17 17 18 19 18 18 21 22 24 27 27 25 26 21 27 25 24 24 23 22 22 21 20 21 19 19 19 19 19
31 31 30 28 27 27 27 25 22 22 22 22 22 19 19 18 18 19 21 23 21 23 25 22 24 24 25 20 24 24 23 22 21 21 20 20 20 20 20 20 19 19 18 17
29 27 26 25 25 24 24 24 23 22 22 21 19 18 17 19 18 20 18 24 25 16 26 25 23 15 19 14 24 22 22 21 21 20 20 19 18 18 18 18 18 18 19 19
27 26 25 24 24 24 24 22 22 21 19 18 18 20 25 27 29 26 22 27 27 20 24 22 15 13 13 21 22 21 20 19 18 18 17 17 16 16 16 16 16 16 17 17
26 26 25 26 25 23 21 22 24 23 21 22 22 20 27 27 28 28 27 20 18 19 19 17 16 15 13 20 19 18 17 17 16 15 15 13 13 13 13 13 13 13 12 14
27 26 25 24 26 26 27 28 27 26 27 28 27 28 29 29 25 25 25 23 21 22 20 16 14 13 17 16 15 15 15 15 13 13 11 10 10 10 10 10 9 9 9 10
28 28 28 31 32 31 31 30 28 29 30 26 27 27 27 27 26 25 24 22 21 19 20 19 16 15 14 13 13 12 12 12 10 9 8 8 8 7 6 6 5 5 6 7
31 31 32 33 34 33 32 33 30 29 29 27 25 26 25 24 23 23 20 21 20 18 17 17 16 14 12 11 11 10 9 9 6 5 6 5 4 3 2 2 2 3 4 4

GFSNGP_sfc_temp_117.txt.gz
Temp
40 43 43 37 38 41 39 37 30 35 35 41 43 40 41 42 40 37 35 35 34 33 33 32 33 32 32 33 34 34 34 33 33 33 33 33 33 33 34 35 35 36 37 39
31 40 40 38 41 42 42 41 40 41 36 39 41 40 37 37 35 33 33 32 32 32 32 31 31 31 32 32 32 33 32 32 32 33 33 32 32 32 32 31 32 33 32 34
24 34 34 27 34 38 41 40 38 22 32 36 31 31 32 31 31 30 30 30 30 30 29 30 30 31 30 31 32 31 31 31 32 32 32 32 32 31 30 30 31 31 31 32
26 28 18 32 40 39 37 35 36 36 33 31 29 30 29 31 28 28 28 28 26 27 28 29 30 31 32 32 31 30 29 30 31 31 31 31 32 31 30 30 29 30 30 31
22 21 29 32 31 27 25 26 33 32 33 31 30 29 27 31 31 28 25 26 27 28 29 29 29 31 31 30 30 29 27 28 29 29 28 30 29 29 30 29 28 28 29 30
23 19 9 26 34 41 36 18 31 32 32 32 32 22 21 29 30 28 27 28 28 29 30 30 31 32 30 30 30 29 27 27 28 29 27 27 28 27 28 29 28 28 27 28
21 18 23 33 33 40 19 18 33 32 31 33 27 26 26 28 28 30 30 30 31 30 29 30 31 31 28 29 28 29 29 28 27 27 27 26 26 28 27 27 27 26 26 26
20 17 18 32 33 27 28 31 30 31 29 27 26 26 27 28 28 29 29 30 33 31 30 31 31 30 27 28 30 30 27 26 26 26 26 25 24 24 25 25 24 24 24 24
24 21 31 34 31 34 34 30 30 29 29 28 26 26 27 27 28 28 29 31 34 33 31 32 32 31 27 28 29 30 30 29 25 25 25 25 23 22 22 23 22 22 22 22
27 30 31 32 33 33 32 30 31 31 30 29 26 26 26 27 28 28 31 32 33 31 29 28 30 30 30 31 31 30 29 29 29 26 24 25 25 24 23 22 21 21 22 22
28 31 32 32 32 32 30 31 30 30 29 28 28 27 27 27 28 29 32 32 32 29 27 27 29 28 29 30 31 30 29 29 29 29 27 24 25 24 24 25 26 22 21 22
24 31 31 29 32 33 29 29 29 29 28 29 28 26 27 26 27 30 30 31 29 27 26 25 25 25 27 29 29 28 28 28 27 27 27 27 24 23 31 30 30 30 30 28
31 34 31 32 33 33 30 30 30 29 29 27 28 28 28 28 29 32 30 29 27 26 25 25 24 23 24 25 24 23 21 23 24 24 24 23 22 21 20 22 28 29 29 29
34 32 28 30 29 32 31 31 32 31 30 29 29 30 30 30 31 29 27 27 27 25 24 23 23 20 22 24 26 23 25 22 22 23 20 21 19 22 22 20 17 18 25 27
34 35 32 32 32 31 32 31 29 28 29 29 31 31 31 28 24 23 26 25 24 22 21 21 20 18 20 22 24 21 25 22 20 19 20 20 22 21 21 20 16 15 18 19
34 33 32 30 31 31 31 31 29 28 28 26 27 27 26 25 23 22 22 23 20 16 16 12 16 14 16 17 20 23 20 20 20 20 20 22 21 21 21 20 18 15 14 12
30 28 30 29 29 30 31 30 29 29 29 29 29 29 27 25 23 20 19 18 15 12 10 10 10 11 12 14 18 20 20 21 18 22 21 21 20 20 20 16 16 17 13 7
34 33 33 32 30 30 30 30 30 30 28 25 22 21 19 17 16 14 11 8 8 7 7 8 8 11 14 17 21 23 22 22 22 21 21 18 19 20 17 16 16 14 12 14
37 34 32 32 32 31 30 27 24 23 22 21 19 16 15 14 12 9 8 10 5 6 9 10 21 17 20 21 20 22 20 17 19 20 19 15 14 15 13 11 9 7 9 10
32 32 31 30 30 26 22 22 22 20 20 19 18 16 14 11 10 12 11 11 11 12 13 17 21 21 21 20 14 20 17 15 18 16 13 13 9 9 10 10 12 9 5 6
27 27 26 25 23 23 22 21 20 19 18 18 16 14 13 11 12 14 13 15 13 15 20 17 18 17 19 14 17 12 13 11 12 12 9 7 5 8 8 7 11 12 13 10
27 25 24 23 22 21 21 21 21 19 18 17 15 14 13 13 9 11 9 17 19 13 20 18 16 8 12 9 18 13 13 12 11 12 11 9 8 9 10 9 8 11 10 12
24 24 23 22 21 20 20 20 19 19 17 16 14 13 15 20 21 18 16 22 21 17 18 10 7 7 7 15 10 7 7 6 5 5 7 1 0 3 6 7 8 7 5 8
23 23 23 22 21 20 18 20 22 19 15 16 13 10 20 19 16 22 19 12 10 11 9 4 8 10 10 8 5 4 3 1 3 4 1 -2 -4 -3 4 4 3 3 2 2
25 24 23 22 23 22 23 24 23 23 22 24 25 26 24 24 19 20 17 14 17 12 9 6 6 4 3 1 1 1 -0 4 1 -5 -7 -4 1 -4 -2 -2 -7 -5 -7 -5
26 25 25 27 26 25 25 24 21 22 23 18 19 19 19 20 19 17 14 12 12 9 7 4 4 -0 -1 0 -2 -3 -3 2 -7 -6 -8 -4 -10 -8 -5 -8 -11 -8 -6 -9
27 25 26 26 27 26 25 24 20 20 22 21 20 20 19 17 16 15 12 11 7 5 4 3 2 1 -1 -4 -5 -7 -8 -6 -9 -8 -8 -14 -16 -12 -11 -12 -7 -5 -2 -4

GFSNGP_sfc_temp_123.txt.gz
Temp
35 39 39 36 36 37 34 33 27 31 32 30 35 35 32 33 34 32 31 31 31 31 30 30 31 31 31 31 31 31 29 29 28 29 30 31 30 31 31 31 31 32 32 34
32 38 39 34 35 35 36 36 35 34 28 32 33 34 33 33 31 30 30 30 30 30 29 28 29 29 28 27 28 28 27 27 27 28 28 28 28 28 29 29 29 29 29 31
25 33 33 26 33 35 37 35 33 24 31 32 30 29 29 28 31 30 29 28 27 27 28 28 28 28 25 23 25 25 24 25 26 26 25 25 27 26 26 26 27 27 28 30
26 29 18 29 35 35 32 30 32 31 30 30 31 30 28 27 29 28 27 26 26 26 26 24 22 23 26 25 26 24 23 23 24 24 24 24 24 24 24 25 25 26 27 28
22 22 27 29 30 24 25 27 30 28 28 31 29 28 26 29 29 23 20 22 24 25 21 21 24 28 29 28 27 25 24 23 24 23 22 22 22 22 23 24 25 25 26 26
22 18 9 21 32 35 32 19 29 30 28 27 27 21 17 27 25 23 23 24 26 26 25 28 28 30 28 27 26 24 24 24 24 24 22 21 22 22 23 24 24 26 26 26
22 19 24 31 32 35 18 20 28 29 29 30 24 23 25 26 22 24 26 28 29 27 26 27 29 29 26 26 25 25 26 25 24 24 24 23 23 24 23 23 24 25 25 26
21 17 18 32 31 26 24 25 28 24 23 30 27 25 25 24 24 26 27 28 28 27 26 28 28 27 25 24 26 27 25 25 24 24 24 24 23 24 24 23 22 23 24 24
27 24 26 28 24 28 30 27 29 25 23 28 26 26 26 26 27 28 27 27 28 27 26 27 28 28 24 24 27 27 27 24 23 24 24 24 22 22 24 24 21 21 22 22
27 26 26 28 29 29 28 28 24 25 25 25 23 25 25 26 26 26 27 26 26 26 25 25 27 27 28 29 28 27 26 26 26 26 24 24 24 24 23 23 22 20 19 20
27 28 30 29 31 30 29 30 28 25 24 24 24 24 25 25 26 26 26 26 27 26 25 24 25 25 26 28 29 29 27 27 26 26 25 23 22 23 23 24 26 22 20 20
23 30 29 28 29 29 28 27 26 25 25 26 27 25 26 25 26 26 25 26 25 25 24 23 24 23 24 26 27 26 26 25 24 24 23 22 21 20 27 28 28 28 28 25
27 32 29 29 31 29 27 28 26 26 27 25 26 27 27 25 26 26 26 25 24 23 23 23 23 22 23 24 23 20 18 20 21 20 19 18 18 16 14 19 26 26 26 27
31 31 28 27 25 28 28 28 31 28 28 28 27 28 27 26 27 26 25 24 24 24 23 23 23 19 21 25 25 21 21 19 19 18 16 16 14 17 17 15 14 14 21 23
33 33 30 28 28 28 30 29 26 26 27 27 28 26 26 25 24 23 24 25 24 23 22 21 20 17 18 21 20 18 22 19 16 14 15 16 17 16 15 14 13 12 14 16
30 28 28 28 28 29 28 29 27 26 27 26 25 24 25 26 24 23 23 24 20 17 16 12 14 11 13 17 20 20 18 17 15 16 15 16 16 15 15 14 14 12 12 8
28 26 26 26 28 28 28 29 29 28 27 25 25 24 24 24 22 19 18 17 14 12 8 12 8 8 12 15 18 17 16 17 14 17 16 16 15 14 14 12 12 12 12 9
31 30 30 29 28 27 28 29 29 28 26 26 24 22 20 18 16 14 12 12 12 12 10 6 8 12 14 15 18 18 16 17 17 16 15 12 13 13 11 10 10 9 10 11
30 29 28 29 29 29 29 28 27 26 24 23 21 19 17 15 14 12 11 11 9 10 8 8 20 15 16 17 17 16 14 13 14 12 12 7 7 8 6 6 6 5 7 7
28 29 29 28 28 27 23 22 22 21 21 20 17 15 14 14 14 12 12 12 10 10 11 15 18 17 17 14 13 14 12 10 11 8 4 4 -1 -3 1 1 2 1 3 3
27 25 23 22 21 22 22 22 20 19 18 19 18 17 16 15 14 13 14 14 12 14 17 14 15 14 14 12 11 5 5 2 1 0 -4 -7 -6 -2 -3 -5 -3 -4 -3 -2
20 22 21 21 21 20 21 21 21 19 18 17 18 17 15 14 13 12 10 16 17 11 14 14 12 5 8 7 8 3 4 2 -0 -1 -5 -6 -8 -10 -9 -9 -11 -11 -12 -11
22 22 21 21 20 20 20 20 20 19 18 17 17 16 17 18 19 16 14 18 16 11 13 8 3 2 1 1 -1 -4 -5 -7 -8 -10 -12 -14 -14 -15 -17 -17 -17 -18 -16 -13
22 23 22 21 21 21 19 19 20 19 17 18 17 17 19 17 16 18 18 12 9 8 5 2 2 0 -3 -5 -6 -9 -11 -14 -15 -17 -13 -17 -22 -23 -21 -26 -20 -20 -18 -15
23 23 22 22 22 21 21 22 21 21 21 21 21 21 23 21 14 15 12 11 12 8 3 -1 -1 -4 -7 -10 -11 -14 -17 -18 -21 -19 -21 -24 -25 -27 -28 -27 -27 -25 -20 -21
24 23 23 25 24 23 22 22 20 21 21 18 18 18 17 17 15 14 12 10 8 5 1 -3 -7 -9 -10 -12 -15 -18 -18 -14 -17 -21 -24 -24 -26 -25 -28 -26 -28 -27 -26 -24
24 23 24 23 23 23 22 22 21 20 20 18 15 16 15 14 12 12 9 6 3 1 -4 -9 -9 -9 -12 -15 -16 -19 -19 -20 -20 -21 -27 -28 -28 -30 -30 -30 -31 -30 -27 -26

GFSNGP_sfc_temp_126.txt.gz
Temp
34 37 37 35 35 36 35 35 29 33 32 35 38 36 33 31 31 31 30 31 31 30 30 30 30 27 28 27 27 27 28 27 26 28 28 28 28 28 29 29 30 30 31 32
31 36 37 33 33 34 35 36 35 34 32 33 32 31 30 32 32 31 30 30 30 28 27 27 27 28 28 27 25 26 24 24 25 26 26 26 26 26 27 27 28 28 28 29
26 31 32 26 30 34 37 35 33 25 32 30 29 31 29 30 31 30 29 28 28 25 25 24 24 27 26 26 27 25 23 24 24 24 24 24 25 25 24 25 27 26 26 27
27 28 18 30 34 35 33 31 30 30 29 30 29 28 27 28 29 29 28 27 24 22 22 23 24 26 28 28 26 24 23 23 24 23 23 24 23 23 23 25 25 26 25 26
24 22 27 29 29 27 27 28 30 28 29 28 28 29 26 30 29 28 24 18 21 23 23 23 26 28 28 27 26 25 22 22 23 23 22 23 22 22 23 23 24 25 25 25
23 19 11 21 31 36 31 19 29 29 30 28 28 22 15 24 24 21 21 23 24 26 26 27 27 29 27 26 25 23 23 23 24 24 22 21 22 23 23 23 24 25 24 25
23 20 24 31 32 35 20 20 29 29 29 29 24 22 19 23 21 21 24 26 28 27 26 27 28 28 26 25 24 25 25 24 24 24 24 22 23 24 23 22 22 23 23 24
23 21 18 32 31 27 25 26 28 26 23 28 25 25 24 24 23 25 26 27 28 27 26 27 27 26 24 24 25 26 25 24 24 24 23 23 23 24 23 21 20 20 20 21
29 26 28 29 26 29 30 26 28 24 22 25 24 25 24 24 24 26 26 26 28 26 26 26 28 27 24 25 27 27 26 25 24 24 23 23 22 22 23 22 20 18 19 18
28 26 27 29 29 29 28 29 24 24 23 28 25 25 25 26 25 25 25 25 26 26 25 25 26 27 28 29 28 26 26 25 25 24 22 21 23 23 22 21 20 19 18 18
27 28 29 29 29 27 29 28 24 22 22 21 24 24 25 24 24 25 25 26 26 26 25 24 25 26 26 28 29 28 26 26 24 24 23 21 19 22 22 23 24 21 19 18
25 31 30 28 28 29 28 28 26 24 22 24 26 23 25 23 25 25 24 25 25 25 24 24 24 23 24 26 27 26 24 23 22 22 21 21 19 18 25 26 27 27 27 24
28 31 29 29 27 29 29 28 26 25 25 24 26 26 26 24 24 26 25 26 24 24 24 23 22 21 23 22 21 19 18 19 19 19 18 16 15 14 12 17 24 25 25 26
31 30 27 28 25 27 29 27 30 26 27 26 26 27 26 26 26 26 25 25 25 24 24 23 22 19 22 25 24 21 19 18 17 17 16 14 12 15 15 14 12 13 20 22
30 30 29 28 27 27 30 28 26 26 26 26 28 26 26 25 24 24 25 26 25 22 22 22 20 17 20 22 20 19 21 16 15 14 15 15 15 14 14 13 12 12 13 14
30 29 28 28 28 28 28 27 26 26 26 25 25 25 26 26 24 23 24 24 21 17 17 13 15 12 14 18 20 19 17 17 15 16 15 15 14 13 13 12 11 12 10 8
27 26 27 27 28 28 27 27 27 27 27 25 25 24 24 24 22 20 18 17 15 12 10 13 10 9 14 15 18 16 16 17 13 15 13 14 12 11 11 9 8 8 8 7
32 30 30 31 29 28 27 28 28 28 26 26 24 22 20 19 17 15 13 13 12 11 11 7 8 13 13 15 17 17 16 15 15 13 12 8 10 10 7 6 6 5 5 6
30 28 28 30 29 28 27 27 27 26 24 23 21 19 18 16 15 13 13 14 13 13 10 10 20 15 16 16 15 14 12 10 11 9 9 4 3 4 2 1 -0 -1 1 2
27 28 28 27 28 25 22 20 23 22 22 21 18 17 14 14 14 13 14 12 12 14 14 16 17 16 14 12 11 11 9 6 8 4 -0 -0 -6 -8 -7 -5 -4 -6 -10 -4
25 23 21 20 15 19 22 21 20 19 20 19 17 15 14 13 14 14 14 14 13 15 16 14 14 13 12 9 8 2 2 -1 -3 -5 -9 -13 -13 -10 -13 -17 -15 -15 -14 -13
19 21 19 19 21 19 20 20 20 19 19 18 17 16 15 14 14 13 12 16 16 11 13 12 10 4 6 5 5 -1 1 -1 -4 -5 -10 -13 -17 -21 -23 -22 -21 -19 -20 -19
20 21 21 21 19 18 19 19 19 19 18 18 17 17 17 17 18 16 13 17 15 10 11 5 1 -0 -2 -3 -6 -8 -8 -10 -12 -14 -19 -24 -24 -26 -25 -24 -25 -26 -24 -19
22 22 21 21 21 21 19 20 21 20 19 19 18 17 18 17 16 18 16 11 8 6 4 -0 1 -1 -4 -8 -10 -13 -15 -17 -19 -23 -21 -24 -29 -29 -28 -30 -26 -27 -25 -24
23 22 22 22 22 21 21 21 20 20 19 19 20 21 22 21 14 13 11 9 10 6 1 -3 -3 -6 -9 -13 -15 -17 -20 -21 -25 -25 -26 -27 -28 -30 -31 -30 -31 -30 -29 -27
24 23 24 25 24 22 22 21 19 19 20 18 18 17 15 15 14 12 10 8 6 3 -2 -9 -9 -10 -12 -15 -19 -20 -20 -16 -22 -24 -26 -27 -29 -27 -30 -28 -30 -30 -31 -29
24 23 23 22 23 22 22 21 19 19 20 19 17 15 14 13 12 10 8 5 3 -0 -5 -8 -9 -11 -15 -20 -20 -21 -21 -23 -24 -23 -29 -30 -30 -32 -32 -32 -32 -31 -30 -29

GFSNGP_sfc_temp_129.txt.gz
Temp
39 40 41 40 40 40 37 40 34 39 38 45 45 45 45 39 36 34 34 35 34 33 33 33 34 34 34 32 32 32 30 29 28 29 30 30 30 30 31 32 33 32 32 32
34 39 39 36 39 40 40 40 40 42 40 42 37 38 36 36 36 33 33 32 31 32 32 32 32 32 32 30 29 30 29 27 27 28 28 27 28 29 29 30 29 29 28 29
28 35 32 28 36 38 40 42 41 34 42 38 35 36 36 36 36 34 32 30 30 30 30 30 30 31 30 29 30 28 27 27 26 26 26 26 27 27 27 28 29 28 27 28
29 29 22 39 38 39 38 40 40 37 36 37 37 34 35 37 35 32 31 29 29 29 29 29 30 31 31 30 28 27 26 26 26 25 25 27 26 26 26 29 28 27 27 27
27 27 33 37 34 32 33 36 39 37 32 31 32 33 28 33 34 31 29 27 27 28 28 29 30 31 30 28 27 27 25 25 25 25 24 25 25 25 26 27 27 27 27 26
28 23 21 32 35 39 38 29 35 36 33 31 32 27 31 30 30 27 26 26 25 28 30 29 29 31 29 27 26 25 25 25 26 26 25 24 26 25 26 26 25 26 26 26
29 25 31 38 36 39 28 31 34 37 35 32 30 33 28 27 26 27 27 28 29 28 27 28 30 30 28 27 25 27 27 27 26 27 26 26 27 27 25 25 25 24 24 25
28 24 23 36 35 32 34 32 35 34 34 33 27 25 25 25 25 27 27 29 30 29 28 28 29 28 27 26 28 29 28 26 25 25 27 27 26 26 25 25 23 23 23 23
32 32 32 37 32 33 35 34 32 32 30 32 27 26 26 25 26 28 28 29 30 30 28 29 30 30 27 27 30 29 28 27 26 25 25 27 26 25 26 25 24 23 23 22
32 31 32 32 32 33 34 34 32 32 30 30 26 26 25 26 27 28 29 28 29 28 27 27 30 30 30 31 30 29 28 27 27 26 25 26 28 27 26 25 24 22 22 22
31 29 31 32 33 32 31 30 28 28 29 29 28 26 27 27 27 28 28 28 29 28 27 27 29 29 30 31 32 30 28 28 27 27 26 25 24 26 26 26 26 24 23 22
33 35 36 33 32 33 30 28 28 26 25 28 29 27 28 26 27 28 27 28 28 28 27 27 28 27 28 30 30 28 27 26 25 25 25 24 24 23 25 26 27 26 27 25
33 33 32 32 32 34 31 29 29 29 29 26 28 28 29 27 28 28 28 28 28 27 27 27 27 26 26 25 24 23 23 23 23 23 22 22 22 21 19 22 23 23 24 24
33 32 28 30 27 32 31 30 31 30 30 30 29 30 30 29 28 28 28 28 28 28 27 27 26 23 27 28 26 23 22 21 23 23 22 22 22 22 21 19 18 17 20 20
32 33 34 31 30 30 31 30 28 28 28 28 30 29 29 27 26 26 28 29 28 27 26 25 24 21 25 26 24 24 24 23 22 22 21 21 21 21 20 19 18 16 16 16
30 30 30 29 28 29 30 29 28 27 28 27 27 27 27 27 27 27 27 27 24 22 23 20 20 19 22 24 23 23 22 19 20 21 20 19 19 18 18 17 16 15 12 11
28 27 28 27 28 28 28 30 30 29 28 28 27 26 25 25 24 23 22 22 19 19 19 20 18 18 21 22 23 23 22 20 18 19 18 18 17 16 15 14 13 13 12 8
35 34 34 32 30 28 28 30 30 30 28 28 25 23 21 20 19 18 17 16 16 16 17 17 18 19 20 21 23 22 21 20 19 17 16 15 15 14 12 11 10 10 10 10
34 32 33 33 32 30 30 30 29 28 25 24 23 21 21 19 18 17 17 17 17 17 16 19 21 20 20 20 21 20 19 17 16 15 14 10 10 10 9 8 7 6 7 7
30 32 32 31 31 29 27 27 26 24 24 23 20 19 17 17 17 17 18 19 21 20 20 20 20 19 18 17 18 19 17 15 14 11 10 9 7 6 6 3 3 3 3 4
27 27 25 23 22 23 25 25 23 22 22 22 20 18 17 17 18 18 17 17 17 19 20 19 19 18 17 16 16 14 12 10 9 7 6 5 5 3 2 2 2 1 1 1
23 23 22 22 23 22 23 23 23 21 21 20 18 17 16 16 17 19 20 19 19 18 19 18 17 13 13 13 14 11 10 9 7 6 4 3 2 1 -0 -1 -2 -1 -1 -1
24 24 23 22 22 22 22 22 22 22 20 19 17 18 19 20 21 18 16 19 19 16 17 14 8 5 5 10 9 8 6 4 3 2 1 0 -1 -1 -1 -2 -2 -3 -3 -3
24 25 24 23 22 22 21 21 22 22 21 20 19 20 21 20 21 22 21 18 14 14 12 7 6 3 5 6 5 4 3 2 1 -0 -1 -7 -3 -4 -3 -4 -4 -4 -5 -5
25 24 24 23 24 24 23 23 22 22 22 21 21 22 24 24 21 18 17 13 11 12 9 2 1 0 5 5 3 2 1 1 -0 -0 -2 -2 -3 -4 -4 -5 -6 -5 -6 -6
26 25 26 27 26 25 24 23 22 22 22 20 21 21 20 19 17 16 14 12 11 7 7 4 3 3 3 2 1 0 0 -1 -2 -2 -4 -3 -4 -4 -6 -6 -6 -6 -7 -7
26 26 26 25 25 24 24 23 21 20 21 21 19 19 18 16 15 13 11 10 9 7 5 4 3 2 3 2 0 -1 -1 -1 -4 -2 -4 -4 -5 -5 -7 -7 -7 -7 -8 -8